{"data":{"norad_id":53996,"epoch":"2026-09-20T03:54:31.053024Z","epoch_age_seconds":115628,"freshness":"FRESH","line1":"1 53996U 22125AJ  26263.16285941  .00000369  00000+0  41311-4 0  9990","line2":"2 53996  53.1611  60.2741 0001168  96.2169 263.8955 15.08832187218822","mean_motion":15.08832187,"eccentricity":0.0001168,"inclination_deg":53.1611,"raan_deg":60.2741,"arg_perigee_deg":96.2169,"mean_anomaly_deg":263.8955,"bstar":4.1311e-5,"rev_number":21882,"period_min":95.438048870308,"perigee_km":538.95925906375,"apogee_km":540.57528150128,"semimajor_km":6917.9042702825,"source":"CELESTRAK","updated_at":"2026-09-21T09:00:33.045813Z"}}